Location: Antichan
(42.9728°N, 0.6667°E)
Time: 18:09:13
(UTC+00:00)

Spot 2 Rocket - Pass Details

Date: 15 August 2020
Orbit: 756 x 773 km, 98.6° (Epoch: 18 September)

Event Time Altitude Azimuth Distance (km) Brightness Sun altitude
Exits shadow 20:51:16 34° 144° (SE) 1,253 4.1 -18.5°
Maximum altitude 20:53:27 66° 73° (ENE) 840 3.5 -18.8°
Drops below altitude 10° 20:58:30 10° 352° (N) 2,316 6.7 -19.5°
Sets 21:00:49 0° 350° (N) 3,244 7.6 -19.8°
